DELTA 1 DEB, 12532

Orbit data source: Space-Track

DELTA 1 DEB, 12532 is space debris in SSO originally from a launch on Thu, 29 Jul 1976 UTC launched from the Air Force Western Test Range (AFWTR). Debris objects in space refer to the collection of defunct objects orbiting the Earth. Examples of debris include non-operational satellites, rocket bodies, and fragments generated from explosions, collisions, or faulty payload assembly.

Loading next visibility...
Identifier
12532, 1976-077DM
Orbit
SSO
Country
Flag of USUS
Related business
Manufacturer
Unknown
Mission
Spacecraft
Bus & Motor
Unknown
Mass
Unknown
Launch date (UTC)
1976-07-29 (49 years ago)
Launch vehicle
Unknown
Launch site
Air Force Western Test Range (AFWTR)
Object type
Payload
Rocket body
Debris
Shape & HBR
Unknown shape, 0.1 m
Radar Cross Section
Small (<0.1 m²)

Expand to show TLE details & history
Last TLE update: 10 hours ago

TLE from 10 hours ago
0 DELTA 1 DEB
1 12532U 76077DM  25352.86779968  .00001040  00000-0  43487-2 0  9990
2 12532 102.1262 333.0696 0246556 283.0988 140.8137 12.77937593357771
Epoch: 2025-12-18T20:49Z
TLE epoch observation values (Epoch: 2025-12-18T20:49:37.892Z)
Latitude
63.05548°
Longitude
-91.93049°
Altitude
1,509.949 km
Speed
7.046 km/s
True Right ascension
20h 32m 46s
True Declination
62° 55' 47"
Sunlit
Object was in daylight at epoch
Visualization orbit readout
Latitude
Unknown
Longitude
Unknown
Altitude
Unknown
Speed
Unknown
Apparent Right ascension
Unknown
Apparent Declination
Unknown
Sunlit
N/A
Visualization observer readout
Local Sidereal Time
06:06:59
Azimuth
Unknown
Elevation
Unknown
Doppler factor
Unknown
Orbital elements
Apogee altitude
1,537.78 km
Perigee altitude
1,156.829 km
Semi-major axis
7,725.441 km
Eccentricity
0.02466
Inclination
102.1262°
RAAN
333.0696°
Arg. of periapsis
283.0988°
True anomaly
142.55691°
Mean anomaly
140.8137°
Eccentric anomaly
141.68944°
Mean motion
3.19638 °/min
Orbital period
112.63 mins
BSTAR
0.0043487
Loading maneuver chart data...
Computing Atmospheric mass density...
Loading historical data...
Loading historical data...
Loading historical data...
Loading historical data...
Loading historical data...
Loading historical data...
Loading historical data...

Documentation

Showing up to 5 results
|